DateTimeUTC,F1_A11,F1_S11,BsB_S11,BsG_S11,BsR_S11,BbsB_S11,BbsG_S11,BbsR_S11,BaB_A11,BaG_A11,BaR_A11,Tu_S11,T_S11,Uu_S11,U_S11,P_S11,T1_A11
2021-10-28T18:00:00Z,00000200,21000000,,,,,,,0000.21,-000.00,-000.36,18.1,25.4,,00.0,0648.3,31.1
2021-10-28T18:01:00Z,00000200,21000000,,,,,,,-000.07,0000.09,0000.27,18.1,25.4,,00.0,0648.3,31.1
2021-10-28T18:02:00Z,00000200,21000000,,,,,,,-000.32,0000.21,0000.03,18.1,25.4,,00.0,0648.3,31.1
2021-10-28T18:03:00Z,00000200,61000000,,,,,,,0000.12,-000.16,0000.10,18.2,25.4,,00.0,0648.4,31.1
2021-10-28T18:04:00Z,00000200,41000000,-000.23,0000.09,-000.15,0000.26,0000.10,0000.03,0000.37,0000.34,0000.12,18.6,25.4,,00.0,0649.3,31.1
2021-10-28T18:05:00Z,00000200,01000000,0000.70,0000.32,-000.23,0000.27,0000.07,-000.32,0000.57,0000.27,0000.08,18.7,25.4,,00.0,0649.4,31.1
2021-10-28T18:06:00Z,00000200,01000000,0000.79,0000.63,0000.04,0000.75,-000.18,-000.04,-000.01,0000.13,0000.45,18.8,25.4,,00.0,0649.4,31.1
2021-10-28T18:07:00Z,00000200,01000000,0000.62,-000.24,-000.50,0000.76,-000.04,-000.42,-000.02,0000.16,0000.15,18.8,25.4,,00.0,0649.3,31.1
2021-10-28T18:08:00Z,00000200,01000000,0000.30,0000.16,-000.14,-000.32,-000.50,0000.20,0000.34,-000.25,-000.54,18.7,25.4,,00.0,0649.3,31.1
2021-10-28T18:09:00Z,00000200,01000000,-000.56,0000.57,-000.13,0000.55,-000.01,0000.20,0000.15,0000.42,0000.37,18.6,25.3,,00.0,0649.3,31.1
2021-10-28T18:10:00Z,00000200,01000000,0000.06,-000.33,-000.12,0000.41,-000.10,-000.19,-000.25,-000.10,-000.13,18.5,25.3,,00.0,0649.3,31.1
2021-10-28T18:11:00Z,00000200,01000000,0000.45,0000.38,-000.10,-000.10,-000.25,0000.18,0000.19,-000.14,0000.00,18.5,25.3,,00.0,0649.3,31.1
2021-10-28T18:12:00Z,00000200,01000000,0000.27,0000.42,-000.02,0000.06,0000.07,0000.03,-000.04,0000.16,-000.02,18.5,25.2,,00.0,0649.3,31.1
2021-10-28T18:13:00Z,00000200,01000000,0000.15,-000.09,0000.01,-000.04,0000.03,-000.04,0000.09,0000.16,0000.38,18.5,25.2,,00.0,0649.3,31.1
2021-10-28T18:14:00Z,00000200,01000000,0000.81,-000.12,0000.08,0000.18,-000.09,-000.16,0000.27,0000.08,-000.13,18.5,25.2,,00.0,0649.3,31.1
2021-10-28T18:15:00Z,00000200,01000000,-000.40,0000.02,-000.09,0000.26,-000.23,-000.07,-000.30,-000.18,0000.16,18.6,25.3,,00.0,0649.3,31.1
2021-10-28T18:16:00Z,00000200,01000000,-000.09,-000.09,0000.06,0000.32,-000.16,0000.28,0000.04,-000.17,0000.27,18.6,25.3,,00.0,0649.3,31.1
2021-10-28T18:17:00Z,00000200,01000000,0000.19,0000.12,-000.06,0000.22,0000.06,-000.33,0000.21,0000.27,-000.56,18.7,25.3,,00.0,0649.3,31.1
2021-10-28T18:18:00Z,00000200,01000000,0000.12,-000.09,-000.05,0000.02,0000.05,0000.12,-000.01,0000.19,0000.24,18.7,25.3,,00.0,0649.2,31.1
2021-10-28T18:19:00Z,00000200,01000000,0000.03,-000.20,-000.28,0000.03,-000.10,-000.26,0000.32,0000.23,0000.45,18.6,25.3,,00.0,0649.2,31.1
2021-10-28T18:20:00Z,00000200,01000000,0000.21,0000.30,-000.31,0000.24,0000.08,-000.04,-000.13,0000.16,-000.25,18.5,25.2,,00.0,0649.2,31.1
2021-10-28T18:21:00Z,00000200,01000000,0000.35,0000.20,-000.20,0000.11,-000.48,0000.07,0000.62,-000.19,0000.35,18.5,25.2,,00.0,0649.1,31.1
2021-10-28T18:22:00Z,00000200,01000000,0000.24,0000.29,-000.52,0000.16,0000.04,-000.34,-000.17,0000.41,-000.08,18.4,25.2,,00.0,0649.1,31.0
2021-10-28T18:23:00Z,00000200,01000000,0000.38,0000.33,-000.17,-000.12,-000.03,-000.39,0000.15,0000.14,0000.13,18.3,25.2,,00.0,0649.1,31.0
2021-10-28T18:24:00Z,00000200,01000000,-000.04,0000.15,0000.02,0000.44,-000.03,-000.15,0000.24,0000.02,0000.23,18.3,25.1,,00.0,0649.1,31.0
2021-10-28T18:25:00Z,00000200,01000000,0000.53,0000.39,0000.12,0000.59,-000.13,0000.06,0000.14,-000.09,-000.41,18.2,25.0,,00.0,0649.1,31.0
2021-10-28T18:26:00Z,00000200,01000000,0000.17,0000.01,-000.54,-000.14,-000.25,0000.12,0000.39,0000.10,0000.55,18.1,25.0,,00.0,0649.1,31.0
2021-10-28T18:27:00Z,00000200,01000000,-000.49,-000.20,-000.27,-000.01,0000.00,-000.09,-000.07,0000.46,-000.15,18.1,25.0,,00.0,0649.1,31.0
2021-10-28T18:28:00Z,00000200,01000000,-000.55,0000.15,-000.06,0000.64,0000.16,-000.21,-000.19,-000.04,0000.34,18.2,25.0,,00.0,0649.1,31.0
2021-10-28T18:29:00Z,00000200,01000000,0000.10,-000.05,-000.05,0000.29,-000.09,0000.16,0000.49,-000.01,-000.14,18.2,25.0,,00.0,0649.1,31.1
2021-10-28T18:30:00Z,00000200,01000000,0000.07,-000.15,0000.12,0000.49,0000.28,-000.14,-000.15,0000.27,0000.07,18.3,25.0,,00.0,0649.1,31.1
2021-10-28T18:31:00Z,00000200,01000000,-000.76,-000.31,-000.07,0000.21,0000.06,0000.13,0000.22,-000.09,0000.25,18.3,25.0,,00.0,0649.1,31.1
2021-10-28T18:32:00Z,00000200,01000000,-000.08,-000.10,-000.03,0000.06,0000.08,0000.09,-000.06,0000.05,0000.15,18.4,25.1,,00.0,0649.1,31.1
2021-10-28T18:33:00Z,00000200,01000000,-000.26,0000.00,0000.07,0000.49,0000.27,-000.32,0000.45,0000.34,0000.15,18.5,25.1,,00.0,0649.1,31.1
2021-10-28T18:34:00Z,00000200,01000000,0000.30,0000.18,-000.23,0000.22,-000.28,-000.22,0000.10,0000.44,0000.11,18.6,25.1,,00.0,0649.2,31.1
2021-10-28T18:35:00Z,00000200,01000000,-000.28,0000.39,-000.31,0000.16,-000.08,0000.13,0000.42,-000.19,0000.07,18.6,25.2,,00.0,0649.1,31.1
2021-10-28T18:36:00Z,00000200,01000000,0000.10,0000.10,-000.35,-000.29,0000.19,-000.14,0000.14,0000.41,0000.12,18.7,25.2,,00.0,0649.2,31.1
2021-10-28T18:37:00Z,00000200,01000000,0000.63,0000.30,-000.04,0000.96,-000.19,0000.14,-000.01,-000.12,-000.11,18.7,25.2,,00.0,0649.1,31.1
2021-10-28T18:38:00Z,00000200,01000000,0001.01,0000.19,-000.11,0000.46,-000.07,0000.03,0000.07,0000.17,0000.08,18.7,25.2,,00.0,0649.1,31.1
2021-10-28T18:39:00Z,00000200,01000000,-000.08,-000.18,-000.43,0000.05,0000.17,0000.00,0000.03,-000.03,0000.13,18.7,25.2,,00.0,0649.1,31.1
2021-10-28T18:40:00Z,00000200,01000000,0000.48,-000.10,-000.06,0000.46,0000.15,-000.06,0000.59,0000.45,0000.19,18.6,25.2,,00.0,0649.1,31.1
2021-10-28T18:41:00Z,00000200,01000000,0000.64,0000.20,-000.55,-000.01,0000.05,-000.09,0000.05,0000.31,0000.01,18.5,25.1,,00.0,0649.1,31.0
2021-10-28T18:42:00Z,00000200,01000000,0000.43,-000.12,0000.12,0000.07,0000.23,0000.04,0000.28,0000.11,0000.09,18.5,25.1,,00.0,0649.1,31.1
2021-10-28T18:43:00Z,00000200,01000000,0000.75,0000.28,-000.04,0000.24,0000.06,0000.14,-000.25,-000.03,0000.31,18.5,25.1,,00.0,0649.1,31.1
2021-10-28T18:44:00Z,00000200,01000000,0000.61,0000.20,-000.22,0000.09,0000.39,-000.43,0000.35,0000.15,-000.02,18.6,25.1,,00.0,0649.1,31.1
2021-10-28T18:45:00Z,00000200,01000000,-000.44,0000.21,-000.22,-000.20,-000.16,-000.27,0000.25,0000.28,0000.28,18.6,25.2,,00.0,0649.0,31.1
2021-10-28T18:46:00Z,00000200,01000000,0000.16,0000.16,0000.20,0000.01,-000.03,0000.09,-000.06,-000.02,0000.10,18.7,25.2,,00.0,0649.0,31.1
2021-10-28T18:47:00Z,00000200,01000000,0000.67,0000.08,-000.11,0000.07,0000.03,-000.08,0000.32,0000.25,0000.23,18.8,25.3,,00.0,0649.0,31.1
2021-10-28T18:48:00Z,00000200,01000000,0000.65,0000.31,0000.07,0000.48,-000.07,0000.18,0000.12,-000.04,0000.20,18.8,25.3,,00.0,0649.1,31.1
2021-10-28T18:49:00Z,00000200,01000000,0000.87,-000.00,0000.22,0000.71,-000.39,-000.08,0000.26,0000.29,-000.22,18.9,25.3,,00.0,0649.1,31.1
2021-10-28T18:50:00Z,00000200,01000000,0000.49,0000.08,0000.11,0000.78,-000.18,0000.50,0000.10,0000.18,0000.34,18.9,25.3,,00.0,0649.1,31.1
2021-10-28T18:51:00Z,00000200,01000000,0000.12,0000.42,0000.02,0000.70,-000.07,0000.20,0000.20,-000.02,0000.16,18.8,25.3,,00.0,0649.0,31.1
2021-10-28T18:52:00Z,00000200,01000000,0000.33,0000.41,0000.12,0000.25,0000.50,-000.05,0000.10,0000.78,-000.16,18.7,25.3,,00.0,0649.0,31.1
2021-10-28T18:53:00Z,00000200,01000000,0000.58,0000.22,-000.26,-000.01,0000.47,0000.08,0000.61,-000.36,0000.38,18.6,25.2,,00.0,0649.0,31.1
2021-10-28T18:54:00Z,00000200,01000000,0000.12,0000.76,0000.15,0000.63,0000.11,-000.06,0000.06,0000.57,0000.20,18.5,25.2,,00.0,0649.0,31.1
2021-10-28T18:55:00Z,00000200,01000000,0000.71,0000.37,0000.09,0000.29,-000.03,0000.14,0000.40,0000.28,0000.12,18.5,25.1,,00.0,0649.0,31.1
2021-10-28T18:56:00Z,00000200,01000000,-000.05,0000.55,-000.38,0000.32,0000.31,-000.33,0000.44,-000.17,0000.22,18.4,25.1,,00.0,0649.0,31.0
2021-10-28T18:57:00Z,00000200,41000000,,,,,,,0000.46,0000.97,0000.18,18.4,25.1,,00.0,0649.1,31.1
2021-10-28T18:58:00Z,00000200,61000000,,,,,,,-000.25,-000.19,0000.36,18.1,25.2,,00.0,0648.1,31.1
2021-10-28T18:59:00Z,00000200,21000000,,,,,,,-000.21,-000.04,-000.44,18.1,25.3,,00.0,0648.1,31.1
